�������l�o���
Date,Time,MP-1(��Sv/h),MP-2(��Sv/h),MP-3(��Sv/h),MP-4(��Sv/h),MP-5(��Sv/h),MP-6(��Sv/h),MP-7(��Sv/h),����,����(m/s),���J
2024/01/06,00:00,0.147,0.133,0.208,0.197,0.205,0.120,0.076,���k��,8.2,��
2024/01/06,00:10,0.146,0.132,0.208,0.198,0.205,0.118,0.076,���k��,8.4,��
2024/01/06,00:20,0.146,0.133,0.208,0.198,0.206,0.119,0.076,��,8.2,��
2024/01/06,00:30,0.147,0.133,0.208,0.196,0.206,0.118,0.076,��,6.0,��
2024/01/06,00:40,0.147,0.132,0.209,0.198,0.207,0.119,0.076,��,2.9,��
2024/01/06,00:50,0.147,0.132,0.209,0.198,0.204,0.118,0.076,���k��,3.7,��
2024/01/06,01:00,0.147,0.133,0.207,0.198,0.207,0.119,0.076,���k��,5.0,��
2024/01/06,01:10,0.147,0.132,0.208,0.198,0.206,0.119,0.076,���k��,3.0,��
2024/01/06,01:20,0.147,0.132,0.208,0.197,0.205,0.119,0.075,�k�k��,2.4,��
2024/01/06,01:30,0.147,0.133,0.208,0.197,0.207,0.119,0.076,�k�k��,2.1,��
2024/01/06,01:40,0.147,0.133,0.208,0.197,0.206,0.118,0.076,�k��,1.6,��
2024/01/06,01:50,0.146,0.133,0.208,0.197,0.205,0.119,0.076,���k��,2.6,��
2024/01/06,02:00,0.147,0.133,0.208,0.198,0.206,0.118,0.076,�k��,4.4,��
2024/01/06,02:10,0.148,0.133,0.208,0.196,0.206,0.119,0.076,��,1.3,��
2024/01/06,02:20,0.146,0.133,0.209,0.197,0.205,0.118,0.075,���쐼,0.8,��
2024/01/06,02:30,0.147,0.133,0.209,0.199,0.206,0.119,0.076,���k��,2.1,��
2024/01/06,02:40,0.147,0.135,0.208,0.197,0.205,0.119,0.077,�쐼,1.3,��
2024/01/06,02:50,0.146,0.133,0.208,0.197,0.205,0.118,0.076,���쐼,1.4,��
2024/01/06,03:00,0.147,0.132,0.207,0.198,0.206,0.118,0.076,���쐼,4.7,��
2024/01/06,03:10,0.146,0.134,0.208,0.197,0.206,0.118,0.076,��쐼,1.8,��
2024/01/06,03:20,0.147,0.133,0.208,0.197,0.205,0.118,0.076,��쓌,3.1,��
2024/01/06,03:30,0.147,0.132,0.207,0.198,0.207,0.119,0.076,��쓌,2.9,��
2024/01/06,03:40,0.146,0.134,0.208,0.198,0.205,0.118,0.077,�쓌,2.7,��
2024/01/06,03:50,0.146,0.133,0.208,0.197,0.206,0.119,0.076,��,1.5,��
2024/01/06,04:00,0.147,0.133,0.207,0.198,0.206,0.119,0.076,���쐼,3.9,��
2024/01/06,04:10,0.148,0.134,0.208,0.199,0.205,0.119,0.076,�k��,1.7,��
2024/01/06,04:20,0.147,0.133,0.207,0.197,0.204,0.120,0.076,�쐼,2.7,��
2024/01/06,04:30,0.146,0.133,0.207,0.197,0.205,0.119,0.077,���쐼,3.7,��
2024/01/06,04:40,0.146,0.132,0.208,0.197,0.206,0.118,0.076,�k��,4.0,��
2024/01/06,04:50,0.147,0.133,0.209,0.197,0.205,0.119,0.076,�k��,3.7,��
2024/01/06,05:00,0.147,0.132,0.209,0.197,0.206,0.120,0.076,�k��,4.5,��
2024/01/06,05:10,0.146,0.133,0.208,0.198,0.205,0.119,0.076,�k��,1.7,��
2024/01/06,05:20,0.147,0.133,0.208,0.198,0.206,0.119,0.076,���k��,1.5,��
2024/01/06,05:30,0.147,0.133,0.209,0.196,0.205,0.119,0.076,��,5.3,��
2024/01/06,05:40,0.146,0.134,0.207,0.198,0.205,0.119,0.076,���k��,10.7,��
2024/01/06,05:50,0.147,0.133,0.208,0.198,0.207,0.119,0.076,���k��,9.5,��
2024/01/06,06:00,0.146,0.134,0.209,0.197,0.206,0.118,0.076,��,4.5,��
2024/01/06,06:10,0.146,0.132,0.209,0.198,0.205,0.119,0.076,��,4.8,��
2024/01/06,06:20,0.147,0.134,0.207,0.198,0.205,0.118,0.076,��,6.2,��
2024/01/06,06:30,0.147,0.133,0.208,0.198,0.206,0.119,0.076,�쐼,1.4,��
2024/01/06,06:40,0.147,0.132,0.208,0.198,0.206,0.119,0.077,�쐼,1.0,��
2024/01/06,06:50,0.147,0.133,0.208,0.199,0.205,0.119,0.076,�쐼,2.7,��
2024/01/06,07:00,0.147,0.134,0.207,0.198,0.207,0.119,0.077,��쐼,2.0,��
2024/01/06,07:10,0.146,0.133,0.208,0.198,0.206,0.119,0.077,��쐼,2.4,��
2024/01/06,07:20,0.147,0.133,0.208,0.198,0.206,0.119,0.076,���쐼,3.6,��
2024/01/06,07:30,0.147,0.133,0.208,0.199,0.206,0.119,0.077,���쐼,3.7,��
2024/01/06,07:40,0.146,0.133,0.207,0.198,0.206,0.118,0.076,���쐼,2.7,��
2024/01/06,07:50,0.147,0.133,0.209,0.198,0.206,0.119,0.077,�쐼,2.2,��
2024/01/06,08:00,0.147,0.133,0.208,0.199,0.205,0.119,0.076,��쓌,1.8,��
2024/01/06,08:10,0.147,0.133,0.207,0.198,0.205,0.119,0.076,��쓌,2.2,��
2024/01/06,08:20,0.148,0.133,0.208,0.198,0.205,0.119,0.076,��쓌,3.7,��
2024/01/06,08:30,0.147,0.133,0.208,0.198,0.207,0.119,0.076,��쓌,3.0,��
2024/01/06,08:40,0.146,0.134,0.209,0.197,0.206,0.119,0.076,��,2.6,��
2024/01/06,08:50,0.148,0.134,0.209,0.198,0.207,0.119,0.075,��,3.6,��
2024/01/06,09:00,0.147,0.134,0.208,0.199,0.205,0.118,0.077,��,4.8,��
2024/01/06,09:10,0.146,0.134,0.209,0.198,0.206,0.119,0.077,��,3.8,��
2024/01/06,09:20,0.148,0.133,0.208,0.198,0.207,0.118,0.077,��,3.8,��
2024/01/06,09:30,0.148,0.133,0.207,0.198,0.205,0.119,0.076,��,1.7,��
2024/01/06,09:40,0.147,0.133,0.208,0.197,0.207,0.119,0.076,��,1.5,��
2024/01/06,09:50,0.147,0.133,0.208,0.198,0.206,0.119,0.076,��,1.8,��
2024/01/06,10:00,0.146,0.133,0.208,0.197,0.207,0.119,0.076,-,CALM,��
2024/01/06,10:10,0.147,0.134,0.208,0.198,0.205,0.119,0.076,�k�k��,1.5,��
2024/01/06,10:20,0.146,0.133,0.207,0.197,0.207,0.119,0.076,-,CALM,��
2024/01/06,10:30,0.147,0.133,0.208,0.199,0.204,0.119,0.077,-,CALM,��
2024/01/06,10:40,0.145,0.133,0.206,0.197,0.207,0.119,0.076,��,1.1,��
2024/01/06,10:50,0.148,0.133,0.209,0.198,0.205,0.119,0.076,�쓌,3.7,��
2024/01/06,11:00,0.146,0.133,0.208,0.198,0.206,0.120,0.076,��쓌,3.1,��
2024/01/06,11:10,0.147,0.133,0.207,0.198,0.206,0.119,0.077,��쓌,2.2,��
2024/01/06,11:20,0.145,0.133,0.208,0.198,0.203,0.120,0.076,��쓌,2.5,��
2024/01/06,11:30,0.147,0.133,0.207,0.198,0.207,0.119,0.077,��쓌,4.4,��
2024/01/06,11:40,0.146,0.132,0.208,0.198,0.204,0.120,0.076,��쓌,3.7,��
2024/01/06,11:50,0.145,0.132,0.207,0.198,0.206,0.119,0.076,��쓌,4.5,��
2024/01/06,12:00,0.147,0.133,0.208,0.199,0.206,0.119,0.076,��쓌,4.7,��
2024/01/06,12:10,0.146,0.133,0.207,0.197,0.204,0.119,0.076,�쓌,4.8,��
2024/01/06,12:20,0.144,0.132,0.209,0.198,0.206,0.119,0.077,��쓌,4.1,��
2024/01/06,12:30,0.148,0.133,0.206,0.198,0.205,0.119,0.076,��쓌,3.9,��
2024/01/06,12:40,0.147,0.132,0.208,0.198,0.204,0.120,0.077,��쓌,5.2,��
2024/01/06,12:50,0.145,0.133,0.208,0.197,0.208,0.119,0.076,�쓌,4.3,��
2024/01/06,13:00,0.148,0.133,0.207,0.199,0.206,0.119,0.076,�쓌,4.4,��
2024/01/06,13:10,0.146,0.133,0.208,0.198,0.207,0.119,0.077,���쓌,4.1,��
2024/01/06,13:20,0.145,0.133,0.208,0.197,0.206,0.120,0.076,�쓌,3.7,��
2024/01/06,13:30,0.146,0.133,0.208,0.198,0.207,0.119,0.077,�쓌,3.4,��
2024/01/06,13:40,0.147,0.133,0.209,0.196,0.206,0.119,0.076,��쓌,3.1,��
2024/01/06,13:50,0.146,0.132,0.209,0.200,0.207,0.118,0.077,��쓌,2.6,��
2024/01/06,14:00,0.147,0.134,0.210,0.198,0.205,0.120,0.076,��쓌,2.1,��
2024/01/06,14:10,0.146,0.133,0.208,0.198,0.205,0.119,0.076,��쓌,2.3,��
2024/01/06,14:20,0.148,0.132,0.210,0.198,0.206,0.119,0.077,��쓌,1.4,��
2024/01/06,14:30,0.146,0.133,0.210,0.198,0.203,0.119,0.077,�쓌,1.1,��
2024/01/06,14:40,0.148,0.132,0.209,0.200,0.207,0.119,0.076,�쓌,1.8,��
2024/01/06,14:50,0.147,0.133,0.209,0.197,0.205,0.119,0.077,��쓌,1.2,��
2024/01/06,15:00,0.147,0.133,0.208,0.198,0.208,0.118,0.076,�쓌,0.9,��
2024/01/06,15:10,0.148,0.133,0.209,0.198,0.206,0.120,0.076,���쓌,0.7,��
2024/01/06,15:20,0.146,0.134,0.208,0.199,0.208,0.119,0.077,���k��,0.6,��
2024/01/06,15:30,0.148,0.133,0.209,0.199,0.206,0.119,0.077,�k��,1.4,��
2024/01/06,15:40,0.146,0.133,0.210,0.198,0.208,0.120,0.076,�k��,0.8,��
2024/01/06,15:50,0.146,0.134,0.208,0.199,0.207,0.119,0.076,-,CALM,��
2024/01/06,16:00,0.148,0.133,0.209,0.199,0.206,0.119,0.077,���k��,0.7,��
2024/01/06,16:10,0.146,0.134,0.209,0.199,0.206,0.119,0.076,-,CALM,��
2024/01/06,16:20,0.147,0.134,0.208,0.199,0.206,0.119,0.075,-,CALM,��
2024/01/06,16:30,0.146,0.133,0.208,0.199,0.208,0.119,0.077,���쓌,0.8,��
2024/01/06,16:40,0.147,0.133,0.209,0.198,0.205,0.120,0.077,-,CALM,��
2024/01/06,16:50,0.148,0.133,0.209,0.198,0.207,0.119,0.077,�k��,1.0,��
2024/01/06,17:00,0.147,0.133,0.209,0.198,0.206,0.119,0.077,���k��,0.7,��
2024/01/06,17:10,0.147,0.133,0.208,0.199,0.206,0.119,0.076,���k��,1.1,��
2024/01/06,17:20,0.147,0.133,0.209,0.198,0.208,0.119,0.076,�k��,0.6,��
2024/01/06,17:30,0.147,0.133,0.209,0.199,0.205,0.119,0.077,�k�k��,0.7,��
2024/01/06,17:40,0.147,0.134,0.208,0.199,0.205,0.120,0.077,�k��,1.4,��
2024/01/06,17:50,0.147,0.133,0.208,0.199,0.207,0.119,0.077,�k�k��,1.4,��
2024/01/06,18:00,0.147,0.133,0.209,0.199,0.206,0.119,0.076,�k��,1.8,��
2024/01/06,18:10,0.147,0.133,0.209,0.200,0.206,0.119,0.077,�k��,2.9,��
2024/01/06,18:20,0.147,0.133,0.209,0.199,0.206,0.119,0.077,���k��,4.0,��
2024/01/06,18:30,0.147,0.133,0.209,0.198,0.205,0.120,0.077,���k��,4.5,��
2024/01/06,18:40,0.147,0.133,0.210,0.199,0.207,0.120,0.077,���k��,6.4,��
2024/01/06,18:50,0.148,0.133,0.210,0.200,0.207,0.121,0.076,���k��,7.4,��
2024/01/06,19:00,0.147,0.133,0.210,0.198,0.206,0.120,0.076,���k��,7.3,��
2024/01/06,19:10,0.147,0.134,0.210,0.198,0.206,0.119,0.077,��,5.4,��
2024/01/06,19:20,0.147,0.134,0.208,0.199,0.207,0.118,0.077,���k��,4.1,��
2024/01/06,19:30,0.148,0.133,0.209,0.198,0.207,0.119,0.076,���k��,4.7,��
2024/01/06,19:40,0.148,0.133,0.210,0.198,0.206,0.119,0.076,��,3.1,��
2024/01/06,19:50,0.148,0.133,0.209,0.200,0.206,0.120,0.077,���k��,2.9,��
2024/01/06,20:00,0.148,0.132,0.210,0.199,0.206,0.119,0.076,��,3.6,��
2024/01/06,20:10,0.147,0.133,0.208,0.199,0.207,0.119,0.076,���k��,2.0,��
2024/01/06,20:20,0.147,0.133,0.209,0.200,0.206,0.120,0.077,�k��,0.6,��
2024/01/06,20:30,0.146,0.133,0.208,0.200,0.206,0.120,0.076,�k,0.9,��
2024/01/06,20:40,0.146,0.133,0.210,0.199,0.207,0.119,0.077,���k��,0.9,��
2024/01/06,20:50,0.147,0.133,0.209,0.199,0.207,0.119,0.077,�k,1.3,��
2024/01/06,21:00,0.148,0.134,0.209,0.198,0.207,0.119,0.077,�k,2.7,��
2024/01/06,21:10,0.147,0.133,0.209,0.199,0.208,0.118,0.077,�k�k��,2.8,��
2024/01/06,21:20,0.147,0.134,0.210,0.200,0.207,0.119,0.077,�k�k��,3.1,��
2024/01/06,21:30,0.148,0.134,0.210,0.199,0.207,0.120,0.076,�k�k��,4.6,��
2024/01/06,21:40,0.148,0.134,0.210,0.199,0.208,0.119,0.076,�k�k��,5.4,��
2024/01/06,21:50,0.147,0.134,0.210,0.200,0.207,0.120,0.077,�k�k��,4.9,��
2024/01/06,22:00,0.147,0.134,0.209,0.199,0.206,0.119,0.077,�k��,5.3,��
2024/01/06,22:10,0.148,0.134,0.210,0.198,0.207,0.119,0.077,�k�k��,5.3,��
2024/01/06,22:20,0.147,0.132,0.208,0.200,0.207,0.120,0.076,�k��,4.3,��
2024/01/06,22:30,0.148,0.134,0.209,0.199,0.206,0.120,0.077,�k,1.4,��
2024/01/06,22:40,0.147,0.134,0.209,0.199,0.208,0.119,0.077,�k�k��,0.6,��
2024/01/06,22:50,0.148,0.134,0.209,0.199,0.208,0.120,0.077,�k�k��,1.6,��
2024/01/06,23:00,0.149,0.134,0.210,0.200,0.207,0.119,0.077,�k,0.9,��
2024/01/06,23:10,0.148,0.134,0.209,0.200,0.207,0.121,0.077,�k��,1.0,��
2024/01/06,23:20,0.147,0.133,0.209,0.198,0.207,0.120,0.077,-,CALM,��
2024/01/06,23:30,0.147,0.134,0.210,0.199,0.207,0.119,0.077,�k��,2.0,��
2024/01/06,23:40,0.147,0.134,0.210,0.199,0.206,0.119,0.077,�k��,1.8,��
2024/01/06,23:50,0.147,0.134,0.210,0.199,0.207,0.119,0.077,�k��,2.1,��
